NOAA 16 DEB, 41715

Orbit data source: Space-Track

NOAA 16 DEB, 41715 is space debris in SSO originally from a launch on Thu, 21 Sep 2000 UTC launched from the Air Force Western Test Range (AFWTR). Debris objects in space refer to the collection of defunct objects orbiting the Earth. Examples of debris include non-operational satellites, rocket bodies, and fragments generated from explosions, collisions, or faulty payload assembly.

Loading next visibility...
Identifier
41715, 2000-055PV
Orbit
SSO
Last TLE update
3 days ago
Origin
Manufacturer
Unknown
Mission
Spacecraft
Bus & Motor
Unknown
Mass
Unknown
Launch date (UTC)
2000-09-21 (25 years ago)
Launch vehicle
Unknown
Launch site
Air Force Western Test Range (AFWTR)
Object type
Payload
Rocket body
Debris
Shape & HBR
Unknown
Radar Cross Section
Small (<0.1 m²)

Expand to show TLE details & history

TLE from 3 days ago
0 NOAA 16 DEB
1 41715U 00055PV  25126.33626034  .00006251  00000-0  24973-2 0  9992
2 41715  98.6515 169.7222 0013699  94.1940 266.0808 14.28725428468379
Epoch: 2025-05-06T08:04Z
Definitive object data (Epoch: 2025-05-06T08:04:12.893Z)
Latitude
0.00005°
Longitude
-175.76845°
Altitude
799.608 km
Speed
7.453 km/s
True Right ascension
11h 18m 53s
True Declination
0° 00' 00"
Sunlit
Object was in full shadow at TLE epoch
Visualization TLE readout
Latitude
-71.57161°
Longitude
-145.85089°
Altitude
831.557 km
Speed
7.431 km/s
Apparent Right ascension
03h 24m 07s
Apparent Declination
-75° 34' 23"
Sunlit
Object is in full shadow
Visualization observer readout
Local Sidereal Time
14:27:52
Azimuth
185.881° SSW
Elevation
-53.784°
Doppler factor
1
Orbital elements
Apogee altitude
802.962 km
Perigee altitude
783.315 km
Semi-major axis
7,171.276 km
Eccentricity
0.0013699
Inclination
98.6515°
RAAN
169.7222°
Arg. of periapsis
94.194°
True anomaly
265.92421°
Mean anomaly
266.0808°
Eccentric anomaly
266.0025°
Mean motion
3.57395 °/min
BSTAR
0.0024973
Orbital period
100.73 mins
Loading maneuver chart data...
Loading SW <> Apogee altitude chart data...
Loading historical data...
Loading historical data...
Loading historical data...
Loading historical data...
Loading historical data...
Loading historical data...
Loading historical data...

NOAA 16 DEB Visibility forecast

Observer location: undefined°, undefined°

Span
Click to sort rows by Start time (UTC) header in descending order
Start Az.
Max El. time (UTC)
Max El. Az.
Max El.
End time (UTC)
End Az.
10 mins2025-05-09 15:38:03.556Z16.752° NNE2025-05-09 15:43:03.556Z110.54° ESE44.213°2025-05-09 15:48:03.556Z189.254° SSW
9 mins2025-05-10 02:57:03.556Z172.751° S2025-05-10 03:01:03.556Z262.387° W44.09°2025-05-10 03:06:03.556Z343.102° N
|